METEOR 2-11 DEB, 60004

Orbit data source: Space-Track

METEOR 2-11 DEB, 60004 is space debris in LEO originally from a launch on Thu, 05 Jul 1984 UTC launched from the Plesetsk Missile And Space Complex (PKMTR). Debris objects in space refer to the collection of defunct objects orbiting the Earth. Examples of debris include non-operational satellites, rocket bodies, and fragments generated from explosions, collisions, or faulty payload assembly.

Loading next visibility...
Identifier
60004, 1984-072Z
Orbit
LEO
Country
Flag of CISCIS
Related business
Manufacturer
Unknown
Mission
Spacecraft
Bus & Motor
Unknown
Mass
Unknown
Launch date (UTC)
1984-07-05 (41 years ago)
Launch vehicle
Unknown
Launch site
Plesetsk Missile And Space Complex (PKMTR)
Object type
Payload
Rocket body
Debris
Shape & HBR
Unknown shape, 0.1 m
Radar Cross Section
Small (<0.1 m²)

Expand to show TLE details & history
Last TLE update: 2 weeks ago

TLE from 2 weeks ago
0 METEOR 2-11 DEB
1 60004U 84072Z   25332.79193819  .00002612  00000-0  17593-2 0  9991
2 60004  82.5170 162.9780 0010288  72.2353 287.9938 14.00209321436167
Epoch: 2025-11-28T19:00Z
TLE epoch observation values (Epoch: 2025-11-28T19:00:23.459Z)
Latitude
-0.00002°
Longitude
169.95083°
Altitude
893.69 km
Speed
7.406 km/s
True Right ascension
10h 51m 54s
True Declination
0° 00' 00"
Sunlit
Object was in daylight at epoch
Visualization orbit readout
Latitude
Unknown
Longitude
Unknown
Altitude
Unknown
Speed
Unknown
Apparent Right ascension
Unknown
Apparent Declination
Unknown
Sunlit
N/A
Visualization observer readout
Local Sidereal Time
14:28:18
Azimuth
Unknown
Elevation
Unknown
Doppler factor
Unknown
Orbital elements
Apogee altitude
897.679 km
Perigee altitude
882.724 km
Semi-major axis
7,268.338 km
Eccentricity
0.00103
Inclination
82.517°
RAAN
162.978°
Arg. of periapsis
72.2353°
True anomaly
287.88163°
Mean anomaly
287.9938°
Eccentric anomaly
287.93772°
Mean motion
3.5026 °/min
Orbital period
102.78 mins
BSTAR
0.0017593
Loading maneuver chart data...
Computing Atmospheric mass density...
Loading historical data...
Loading historical data...
Loading historical data...
Loading historical data...
Loading historical data...
Loading historical data...
Loading historical data...

Documentation

Showing up to 5 results
|